Location: Saint-Palais-sur-Mer
(45.6429°N, 1.0859°W)
Time: 02:36:42
(UTC+02:00)

CUBEBUG 2 - Pass Details

Date: 28 April 2024
Orbit: 570 x 668 km, 97.8° (Epoch: 23 May)

Event Time Altitude Azimuth Distance (km) Brightness Sun altitude
Rises 05:17:06 0° 0° (N) 2,803 ? -15.6°
Reaches altitude 10° 05:19:34 10° 346° (NNW) 1,910 ? -15.3°
Maximum altitude 05:22:50 23° 294° (WNW) 1,264 ? -14.9°
Enters shadow 05:24:13 20° 265° (W) 1,407 ? -14.7°
